Regional Weather Roundup
Issued by NWS

Home | Current Version | Previous Version | Text Only | Print | Product List | Glossary Off
Versions: 1 2 3 4 5 6 7 8 9 10 11 12 13 14 15 16 17 18 19 20 21 22 23 24 25 26 27 28 29 30 31 32 33 34 35 36 37 38 39 40 41 42 43 44 45 46 47 48 49 50

000
ASUS45 KSLC 300710
RWRUT

UTAH REGIONAL WEATHER ROUNDUP
NATIONAL WEATHER SERVICE SALT LAKE CITY UT
1200 AM MST FRI JAN 30 2015

UTZ001>011-023>025-300800-

NORTHERN UTAH

CITY           SKY/WX    TMP DP  RH WIND       PRES   REMARKS
BRIGHAM CITY   CLOUDY    39  34  83 CALM      30.27F
HILL AFB       CLOUDY    39  32  75 NE5       30.24F
LOGAN          CLOUDY    33  32  96 CALM      30.26F FOG
OGDEN          CLOUDY    39  34  82 CALM      30.25F
PROVO AIRPORT  CLOUDY    36  32  87 W3        30.24F
SALT LAKE CITY CLOUDY    39  35  86 CALM      30.24F
VERNAL         LGT RAIN  36  30  79 CALM      30.30F
WENDOVER       CLOUDY    37  30  75 NE3       30.25S
HEBER CITY     CLOUDY    34  32  93 CALM      30.25F
WEST JORDAN    CLOUDY    39  36  87 CALM      30.25F

$$

UTZ012>022-026-027-300800-

SOUTHERN/CENTRAL UTAH

CITY           SKY/WX    TMP DP  RH WIND       PRES   REMARKS
BLANDING       CLOUDY    43  34  71 CALM      30.35S
BRYCE CANYON   LGT SNOW  33  31  92 E3        30.24S
CEDAR CITY     LGT RAIN  38  34  85 CALM      30.18S
DELTA          CLOUDY    38  38  99 N6        30.21F WCI  34
HANKSVILLE     CLOUDY    43  34  70 CALM      30.28S
MILFORD        CLOUDY    41  37  86 N9        30.20S
MOAB/CYNLANDS  CLOUDY    42  36  79 NW7       30.24F
PRICE          LGT RAIN  38  34  85 NE5       30.27F WCI  34
ST GEORGE      CLOUDY    54  39  58 N3        30.14F
KANAB          CLOUDY    43  36  75 NE9       30.23S

$$

REGIONAL REPORTS     COLORADO/ARIZONA

CITY           SKY/WX    TMP DP  RH WIND       PRES   REMARKS
CRAIG, CO      CLOUDY    28  26  92 CALM      30.31S
GRAND JUNCTION CLOUDY    39  32  76 CALM      30.26F
RIFLE          CLOUDY    37  29  72 E3        30.30S
MONTROSE       CLOUDY    39  29  67 SE5       30.31S
CORTEZ         CLOUDY    45  32  60 E5        30.29F
PAGE, AZ       NOT AVBL
GRAND CANYON   LGT RAIN  37  35  92 E6        30.17F WCI  32
KINGMAN        LGT RAIN  49  47  93 N5        30.09F
FLAGSTAFF      LGT RAIN  38  36  92 E9        30.15F WCI  31

$$

REGIONAL REPORTS    NEVADA/IDAHO/WYOMING

CITY           SKY/WX    TMP DP  RH WIND       PRES   REMARKS
LAS VEGAS, NV  CLOUDY    58  42  55 S8        30.03S
ELY            CLOUDY    34  34 100 CALM      30.21F
ELKO           CLOUDY    38  32  79 E3        30.20S
POCATELLO, ID  CLEAR     30  30 100 CALM      30.28F
BURLEY         CLOUDY    35  29  78 E9        30.26F WCI  28
EVANSTON, WY   CLOUDY    31  25  78 E8        30.28S WCI  23
ROCK SPRINGS   CLOUDY    31  26  82 E3        30.27F
KEMMERER       CLOUDY    28  23  80 N9        30.28F WCI  20

$$


USA.gov is the U.S. government's official web portal to all federal, state and local government web resources and services.